Location: Cherry Grove
(44.1968°N, 92.8624°W)
Time: 03:08:45
(UTC-05:00)

OTV 5 (USA 277) - Visible Passes

Search period start: 23 July 2018 00:00
Search period end: 02 August 2018 00:00
Orbit: 312 x 321 km, 54.5° (Epoch: 05 July)

Date Brightness Start Highest point End Pass type
(mag) Time Alt. Az. Time Alt. Az. Time Alt. Az.
28 Jul ? 04:53:29 10° SSE 04:54:37 12° SE 04:55:46 10° ESE visible
29 Jul ? 05:06:25 10° SSW 05:08:51 30° SE 05:11:17 10° ENE visible
30 Jul ? 05:20:30 10° SW 05:23:13 88° SSE 05:25:56 10° NE visible
31 Jul ? 04:03:28 19° SE 04:03:34 19° SE 04:05:35 10° E visible
01 Aug ? 04:17:25 43° S 04:17:52 50° SE 04:20:30 10° ENE visible
